Погода в Кривом Роге

Украина / Днепропетровская область     47°54′37″N   33°23′30″E
темп.,
°C
ветер,
м/с
пор.,
м/с
влажн.,
%
обл.,
%
осадки,
мм/ч
давл.,
гПа
погр.,
м
28 октября, чт
чт2800:00+7зсз34715 0.0 102668
03:00+6сз23825 0.0 102656
06:00+5сз227822 0.0 102634
09:00+7зсз236994 0.0 1026128
12:00+12з355355 0.0 1025630
15:00+15зсз564798 0.0 10241101
18:00+12зсз366063 0.0 1024147
21:00+12зсз3765100 0.0 1024208
29 октября, пт
пт2900:00+11ссз2669100 0.0 1025196
03:00+11с2679100 0.0 1025238
06:00+9ссв24895 0.0 102677
09:00+9ссв35825 0.0 1028203
12:00+14ссв34605 0.0 1028801
15:00+15св44412 0.0 10271078
18:00+12св36500 0.0 1028150
21:00+9всв35585 0.0 102994
30 октября, сб
сб3000:00+8всв35654 0.0 102989
03:00+7в34730 0.0 103067
06:00+6вюв34785 0.0 103175
09:00+8в35684 0.0 1031164
12:00+13юв46480 0.0 1031841
15:00+15юв56410 0.0 10301094
18:00+12вюв35510 0.0 1030108
21:00+10вюв36590 0.0 1030121
31 октября, вс
вс3100:00+8вюв36690 0.0 1030127
03:00+7в37720 0.0 1030151
05:00+6в37770 0.0 1030157
08:00+7в410710 0.0 1029285
11:00+13вюв68450 0.0 1028812
14:00+15вюв67370 0.0 10261019
17:00+12в36450 0.0 1026134
20:00+9вюв49520 0.0 1026206
31 октября, вс
вс3123:00+8в49570 0.0 1025196
02:00+7в38640 0.0 1024165
05:00+6в37750 0.0 1023142
08:00+7в37750 0.0 1022221
11:00+12вюв45575 0.0 1021581
14:00+15вюв344992 0.0 1018794
17:00+11юв346176 0.0 101868
20:00+10вюв2366100 0.0 101847